www.pogodaiklimat.ru
ПОГОДА в Куляб аэропорту

Архив погоды в Куляб аэропорту (Таджикистан)

Время
(UTC), дата
16 28.06
17 28.06
18 28.06
19 28.06
20 28.06
21 28.06
22 28.06
23 28.06
00 29.06
01 29.06
02 29.06
03 29.06
04 29.06
05 29.06
06 29.06
07 29.06
08 29.06
09 29.06
10 29.06
11 29.06
12 29.06
13 29.06
14 29.06
15 29.06
16 29.06
17 29.06
18 29.06
19 29.06
20 29.06
21 29.06
22 29.06
23 29.06
00 30.06
01 30.06
02 30.06
03 30.06
04 30.06
05 30.06
06 30.06
07 30.06
08 30.06
09 30.06
10 30.06
11 30.06
12 30.06
13 30.06
14 30.06
15 30.06
16 30.06
17 30.06
18 30.06
19 30.06
20 30.06
21 30.06
22 30.06
00 1.07
01 1.07
02 1.07
03 1.07
04 1.07
05 1.07
06 1.07
07 1.07
08 1.07
09 1.07
10 1.07
11 1.07
12 1.07
13 1.07
14 1.07
15 1.07
16 1.07
17 1.07
18 1.07
19 1.07
20 1.07
21 1.07
22 1.07
23 1.07
23 31.06
00 2.07
01 2.07
02 2.07
03 2.07
04 2.07
05 2.07
06 2.07
07 2.07
08 2.07
09 2.07
10 2.07
11 2.07
12 2.07
13 2.07
14 2.07
15 2.07
16 2.07
17 2.07
18 2.07
19 2.07
20 2.07
21 2.07
22 2.07
23 2.07
00 3.07
01 3.07
02 3.07
03 3.07
04 3.07
05 3.07
06 3.07
07 3.07
08 3.07
09 3.07
10 3.07
11 3.07
12 3.07
13 3.07
14 3.07
15 3.07
16 3.07
17 3.07
18 3.07
19 3.07
20 3.07
21 3.07
22 3.07
23 3.07
00 4.07
01 4.07
02 4.07
03 4.07
04 4.07
05 4.07
06 4.07
07 4.07
08 4.07
09 4.07
10 4.07
11 4.07
12 4.07
13 4.07
14 4.07
15 4.07
16 4.07
17 4.07
18 4.07
19 4.07
20 4.07
21 4.07
22 4.07
23 4.07
00 5.07
01 5.07
02 5.07
03 5.07
04 5.07
05 5.07
06 5.07
07 5.07
08 5.07
09 5.07
10 5.07
11 5.07
12 5.07
13 5.07
14 5.07
23 30.07
Ветер
(напр.,м/с)
Видим. Явления Облачность Т
(С)
Тd
(С)
f
(%)
Тe
(С)
Тes
(С)
Комфортность P
(гПа)
Po
(гПа)
Тmin
(С)
Tmax
(С)
R
(мм)
R24
(мм)
S
(см)
С 5 10 км ясно +33.0 +12.0 28 +33 +33 жарко 1004.0 928.0
С 6 10 км ясно +31.0 +12.0 31 +31 +31 жарко 1004.0 928.0
С 7 10 км ясно +31.0 +11.0 29 +31 +31 жарко 1004.0 928.0
С 8 10 км ясно +31.0 +11.0 29 +31 +31 жарко 1004.0 928.0
С 7 10 км ясно +29.0 +10.0 31 +29 +29 жарко 1003.0 926.7
С 7 10 км ясно +29.0 +10.0 31 +29 +29 жарко 1003.0 926.7
С 6 10 км ясно +28.0 +10.0 32 +28 +28 жарко 1003.0 926.7
С 5 10 км ясно +27.0 +10.0 34 +27 +27 жарко 1003.0 926.7
С 7 10 км ясно +27.0 +9.0 32 +27 +27 жарко 1003.0 928.0
С 6 10 км ясно +28.0 +10.0 32 +28 +28 жарко 1004.0 928.0
С 6 10 км ясно +30.0 +11.0 31 +30 +30 жарко 1004.0 928.0
СВ 3 10 км ясно +33.0 +12.0 28 +33 +33 жарко 1004.0 928.0
штиль 0 10 км ясно +36.0 +12.0 24 +36 +36 очень
жарко
1004.0 928.0
штиль 0 10 км ясно +38.0 +10.0 18 +36 +36 очень
жарко
1004.0 928.0
штиль 0 10 км ясно +39.0 +10.0 18 +38 +38 очень
жарко
1003.0 926.7
Ю 3 10 км ясно +41.0 +9.0 15 +39 +39 очень
жарко
1003.0 926.7
Ю 4 10 км ясно +42.0 +9.0 14 +40 +40 очень
жарко
1002.0 926.7
Ю 4 10 км ясно +42.0 +10.0 15 +40 +40 очень
жарко
1002.0 925.3
Ю 4 10 км ясно +42.0 +10.0 15 +40 +40 очень
жарко
1001.0 925.3
Ю 4 10 км ясно +43.0 +10.0 14 +41 +41 опасность
перегрева
1001.0 925.3
Ю 3 10 км ясно +43.0 +10.0 14 +41 +41 опасность
перегрева
1000.0 924.0
Ю 3 10 км ясно +41.0 +11.0 17 +40 +40 очень
жарко
1000.0 924.0
ЮЗ 3 10 км ясно +39.0 +11.0 19 +38 +38 очень
жарко
1000.0 924.0
ЮВ 2 10 км ясно +35.0 +14.0 28 +36 +36 очень
жарко
1000.0 925.3
С 3 10 км ясно +34.0 +12.0 26 +34 +34 очень
жарко
1001.0 925.3
С 6 10 км ясно +31.0 +13.0 33 +32 +32 жарко 1002.0 926.7
С 7 10 км ясно +31.0 +11.0 29 +31 +31 жарко 1002.0 926.7
С 7 10 км ясно +30.0 +11.0 31 +30 +30 жарко 1002.0 926.7
С 7 10 км ясно +30.0 +10.0 29 +30 +30 жарко 1002.0 926.7
С 8 10 км ясно +29.0 +10.0 31 +29 +29 жарко 1002.0 926.7
С 7 10 км ясно +29.0 +9.0 29 +29 +29 жарко 1002.0 926.7
С 7 10 км ясно +28.0 +9.0 30 +28 +28 жарко 1002.0 926.7
С 6 10 км ясно +28.0 +9.0 30 +28 +28 жарко 1003.0 926.7
С 6 10 км ясно +28.0 +10.0 32 +28 +28 жарко 1003.0 926.7
С 6 10 км ясно +31.0 +10.0 27 +31 +31 жарко 1004.0 928.0
СВ 4 10 км ясно +34.0 +12.0 26 +34 +34 очень
жарко
1004.0 928.0
СВ 3 10 км ясно +36.0 +14.0 27 +37 +37 душно 1004.0 928.0
штиль 0 10 км ясно +39.0 +11.0 19 +38 +38 очень
жарко
1004.0 928.0
штиль 0 10 км ясно +40.0 +11.0 18 +39 +39 очень
жарко
1004.0 928.0
Ю 3 10 км ясно +41.0 +11.0 17 +40 +40 очень
жарко
1003.0 926.7
Ю 3 10 км ясно +43.0 +9.0 13 +41 +41 опасность
перегрева
1003.0 926.7
ЮЗ 4 10 км ясно +43.0 +8.0 12 +41 +41 опасность
перегрева
1002.0 925.3
ЮЗ 5 10 км ясно +43.0 +10.0 14 +41 +41 опасность
перегрева
1001.0 925.3
Ю 3 10 км ясно +44.0 +8.0 12 +42 +42 опасность
перегрева
1001.0 925.3
ЮЗ 4 10 км ясно +43.0 +8.0 12 +41 +41 опасность
перегрева
1000.0 924.0
ЮЗ 3 10 км ясно +42.0 +12.0 17 +41 +41 опасность
перегрева
1000.0 924.0
Ю 2 10 км ясно +38.0 +15.0 26 +39 +39 очень
душно
1000.0 924.0
штиль 0 10 км ясно +35.0 +12.0 25 +35 +35 очень
жарко
1001.0 925.3
С 3 10 км ясно +33.0 +13.0 30 +34 +34 очень
жарко
1001.0 925.3
С 6 10 км ясно +31.0 +12.0 31 +31 +31 жарко 1002.0 926.7
С 6 10 км ясно +31.0 +11.0 29 +31 +31 жарко 1002.0 926.7
С 6 10 км ясно +29.0 +10.0 31 +29 +29 жарко 1002.0 926.7
С 7 10 км ясно +29.0 +10.0 31 +29 +29 жарко 1002.0 926.7
С 7 10 км ясно +29.0 +9.0 29 +29 +29 жарко 1002.0 926.7
С 7 10 км ясно +29.0 +9.0 29 +29 +29 жарко 1002.0 926.7
С 6 10 км ясно +27.0 +9.0 32 +27 +27 жарко 1003.0 926.7
С 5 10 км ясно +28.0 +9.0 30 +28 +28 жарко 1004.0 928.0
С 5 10 км ясно +30.0 +10.0 29 +30 +30 жарко 1004.0 928.0
С 5 10 км ясно +34.0 +10.0 23 +33 +33 жарко 1005.0 928.0
СВ 3 10 км ясно +36.0 +13.0 25 +36 +36 очень
жарко
1005.0 929.3
ЮЗ 4 10 км ясно +37.0 +9.0 18 +35 +35 очень
жарко
1005.0 929.3
Ю 4 10 км ясно +39.0 +11.0 19 +38 +38 очень
жарко
1005.0 929.3
ЮЗ 5 10 км ясно +39.0 +11.0 19 +38 +38 очень
жарко
1005.0 929.3
ЮЗ 4 10 км 5/5 840 м +39.0 +10.0 18 +38 +45 очень
жарко
1005.0 928.0
ЮЗ 4 10 км ясно +40.0 +9.0 16 +38 +38 очень
жарко
1004.0 928.0
ЮЗ 4 10 км ясно +41.0 +9.0 15 +39 +39 очень
жарко
1003.0 926.7
ЮЗ 4 10 км ясно +41.0 +8.0 14 +39 +39 очень
жарко
1002.0 926.7
ЮЗ 4 10 км ясно +41.0 +8.0 14 +39 +39 очень
жарко
1002.0 926.7
ЮЗ 3 10 км ясно +40.0 +11.0 18 +39 +39 очень
жарко
1002.0 926.7
Ю 1 10 км ясно +36.0 +16.0 31 +38 +38 очень
душно
1002.0 926.7
ЮВ 1 10 км ясно +34.0 +14.0 30 +35 +35 очень
жарко
1002.0 926.7
С 5 10 км ясно +33.0 +15.0 34 +35 +35 душно 1003.0 926.7
С 5 10 км ясно +32.0 +13.0 31 +33 +33 жарко 1004.0 928.0
С 6 10 км ясно +30.0 +13.0 35 +31 +31 жарко 1004.0 928.0
С 6 10 км ясно +31.0 +11.0 29 +31 +31 жарко 1004.0 928.0
С 7 10 км ясно +30.0 +11.0 31 +30 +30 жарко 1003.0 928.0
С 6 10 км ясно +29.0 +11.0 33 +30 +30 жарко 1003.0 928.0
С 6 10 км ясно +29.0 +11.0 33 +30 +30 жарко 1003.0 928.0
С 5 10 км 10/10 840 м +27.0 +11.0 37 +28 +28 жарко 1004.0 928.0
С 5 10 км ясно +19.0 +10.0 56 +19 +19 1012.0 934.7
С 6 10 км 10/10 870 м +28.0 +10.0 32 +28 +28 жарко 1004.0 928.0
С 6 10 км 10/10 870 м +27.0 +11.0 37 +28 +28 жарко 1005.0 928.0
С 6 10 км 10/10 750 м +29.0 +11.0 33 +30 +30 жарко 1005.0 929.3
С 4 10 км 10/10 1500 м +32.0 +12.0 29 +32 +32 жарко 1005.0 929.3
СВ 3 8000 м 10/10 1020 м +34.0 +13.0 28 +34 +34 очень
жарко
1005.0 929.3
штиль 0 5000 м мгла 10/10 690 м +37.0 +8.0 17 +35 +35 очень
жарко
1005.0 928.0
штиль 0 5000 м мгла 8/8 660 м +38.0 +9.0 17 +36 +41 очень
жарко
1004.0 928.0
Ю 3 5000 м мгла 2/2 780 м +39.0 +10.0 18 +38 +51 опасность
солнечного
удара
1003.0 928.0
Ю 5 5000 м мгла 8/8 750 м +40.0 +7.0 14 +38 +40 очень
жарко
1003.0 926.7
Ю 4 5000 м мгла 8/8 810 м +41.0 +6.0 12 +38 +41 очень
жарко
1002.0 926.7
Ю 3 6000 м 2/2 960 м +42.0 +7.0 12 +39 +49 очень
жарко
1001.0 925.3
Ю 4 8000 м 2/2 1170 м +42.0 +5.0 11 +39 +44 очень
жарко
1001.0 925.3
Ю 3 8000 м ясно +41.0 +7.0 13 +39 +39 очень
жарко
1000.0 924.0
штиль 0 7000 м ясно +40.0 +9.0 16 +38 +38 очень
жарко
1000.0 924.0
штиль 0 6000 м ясно +38.0 +12.0 21 +37 +37 очень
жарко
1000.0 924.0
СВ 2 7000 м ясно +35.0 +15.0 30 +36 +36 очень
жарко
1000.0 924.0
С 5 9000 м ясно +33.0 +12.0 28 +33 +33 жарко 1000.0 925.3
С 5 10 км ясно +33.0 +11.0 26 +33 +33 жарко 1001.0 925.3
С 6 10 км ясно +31.0 +11.0 29 +31 +31 жарко 1001.0 925.3
С 6 10 км 2/2 1080 м +31.0 +11.0 29 +31 +31 жарко 1001.0 925.3
С 7 10 км 2/2 1080 м +30.0 +10.0 29 +30 +30 жарко 1000.0 925.3
С 7 10 км 10/10 1080 м +30.0 +10.0 29 +30 +30 жарко 1000.0 924.0
С 7 10 км 10/10 1080 м +29.0 +10.0 31 +29 +29 жарко 1000.0 924.0
С 7 10 км 2/2 1110 м +29.0 +10.0 31 +29 +29 жарко 1000.0 924.0
С 7 10 км 2/2 1200 м +28.0 +10.0 32 +28 +28 жарко 1000.0 924.0
С 6 10 км 2/2 1140 м +28.0 +10.0 32 +28 +28 жарко 1001.0 925.3
С 5 10 км ясно +29.0 +11.0 33 +30 +30 жарко 1001.0 925.3
СВ 3 10 км ясно +32.0 +16.0 38 +35 +35 очень
душно
1001.0 925.3
штиль 0 10 км ясно +36.0 +14.0 27 +37 +37 душно 1001.0 925.3
Ю 3 10 км ясно +37.0 +12.0 22 +36 +36 очень
жарко
1001.0 925.3
Ю 3 10 км ясно +39.0 +11.0 19 +38 +38 очень
жарко
1000.0 925.3
Ю 4 10 км ясно +40.0 +11.0 18 +39 +39 очень
жарко
1000.0 924.0
Ю 5 10 км ясно +41.0 +9.0 15 +39 +39 очень
жарко
999.0 924.0
Ю 4 10 км ясно +42.0 +9.0 14 +40 +40 очень
жарко
998.0 922.7
Ю 4 10 км ясно +43.0 +10.0 14 +41 +41 опасность
перегрева
997.0 921.3
Ю 4 10 км ясно +43.0 +10.0 14 +41 +41 опасность
перегрева
997.0 921.3
Ю 4 10 км ясно +43.0 +12.0 16 +42 +42 опасность
перегрева
996.0 921.3
Ю 3 10 км ясно +41.0 +15.0 22 +42 +42 опасность
перегрева
996.0 921.3
Ю 2 10 км ясно +39.0 +14.0 23 +40 +40 очень
душно
996.0 921.3
штиль 0 10 км ясно +37.0 +14.0 25 +37 +37 очень
жарко
997.0 921.3
С 3 10 км ясно +35.0 +14.0 28 +36 +36 очень
жарко
997.0 921.3
С 5 10 км ясно +33.0 +13.0 30 +34 +34 очень
жарко
998.0 922.7
С 6 10 км ясно +31.0 +14.0 36 +33 +33 душно 999.0 922.7
С 6 10 км ясно +31.0 +14.0 36 +33 +33 душно 999.0 922.7
С 6 10 км ясно +31.0 +13.0 33 +32 +32 жарко 999.0 924.0
С 7 10 км ясно +31.0 +13.0 33 +32 +32 жарко 999.0 924.0
С 7 10 км ясно +30.0 +13.0 35 +31 +31 жарко 1000.0 924.0
С 6 10 км ясно +29.0 +12.0 35 +30 +30 жарко 1000.0 925.3
С 6 10 км ясно +28.0 +13.0 40 +30 +30 жарко 1001.0 925.3
С 6 10 км ясно +29.0 +12.0 35 +30 +30 жарко 1002.0 926.7
штиль 0 10 км ясно +29.0 +12.0 35 +30 +30 жарко 1004.0 928.0
Ю 3 5000 м мгла ясно +32.0 +12.0 29 +32 +32 жарко 1005.0 929.3
штиль 0 2000 м мгла ?/? +33.0 +13.0 30 +34 +34 очень
жарко
1006.0 929.3
ЮЗ 5 н/о мгла ?/? +33.0 +13.0 30 +34 +34 очень
жарко
1006.0 930.7
штиль 0 800 м мгла ?/? +33.0 +14.0 32 +34 +34 очень
жарко
1007.0 930.7
ЮЗ 3 800 м мгла 8/8 360 м +34.0 +13.0 28 +34 +38 очень
жарко
1007.0 930.7
ЮЗ 4 1200 м мгла 10/10 360 м +35.0 +12.0 25 +35 +35 очень
жарко
1006.0 929.3
Ю 4 1300 м мгла 10/10 450 м +37.0 +13.0 24 +37 +37 очень
жарко
1005.0 929.3
ЮЗ 4 1900 м мгла 10/10 540 м +37.0 +12.0 22 +36 +36 очень
жарко
1005.0 929.3
ЮЗ 4 1900 м мгла 10/10 570 м +37.0 +12.0 22 +36 +36 очень
жарко
1004.0 928.0
Ю 3 1900 м мгла 10/10 570 м +36.0 +15.0 29 +38 +38 очень
душно
1003.0 926.7
Ю 3 1700 м мгла 10/10 570 м +34.0 +17.0 36 +37 +37 очень
душно
1003.0 928.0
Ю 1 1900 м мгла 10/10 630 м +33.0 +16.0 36 +36 +36 очень
душно
1004.0 928.0
штиль 0 3000 м мгла 8/8 540 м +32.0 +14.0 34 +34 +34 душно 1004.0 928.0
штиль 0 4000 м мгла 10/10 840 м +31.0 +13.0 33 +32 +32 жарко 1005.0 929.3
штиль 0 3800 м мгла 10/10 870 м +31.0 +13.0 33 +32 +32 жарко 1006.0 930.7
штиль 0 3900 м мгла 10/10 780 м +30.0 +12.0 33 +31 +31 жарко 1007.0 930.7
штиль 0 3800 м мгла 10/10 780 м +30.0 +11.0 31 +30 +30 жарко 1008.0 930.7
штиль 0 3900 м мгла 10/10 750 м +29.0 +12.0 35 +30 +30 жарко 1008.0 932.0
штиль 0 3800 м мгла 10/10 750 м +29.0 +12.0 35 +30 +30 жарко 1008.0 932.0
штиль 0 3900 м мгла 10/10 750 м +28.0 +13.0 40 +30 +30 жарко 1008.0 932.0
С 3 4000 м мгла 10/10 780 м +27.0 +15.0 48 +30 +30 душно 1009.0 932.0
С 2 3400 м мгла 10/10 750 м +27.0 +14.0 45 +29 +29 жарко 1009.0 933.3
штиль 0 2500 м мгла 10/10 810 м +26.0 +14.0 48 +28 +28 жарко 1010.0 933.3
СЗ 1 2900 м мгла 10/10 780 м +28.0 +11.0 35 +29 +29 жарко 1011.0 934.7
штиль 0 4000 м мгла 5/5 990 м +29.0 +9.0 29 +29 +33 жарко 1011.0 934.7
ЮЗ 3 3700 м мгла 2/2 810 м +29.0 +8.0 27 +28 +36 жарко 1011.0 934.7
штиль 0 4000 м мгла 2/2 960 м +30.0 +9.0 27 +29 +46 жарко 1011.0 934.7
Ю 4 5000 м мгла 2/2 960 м +31.0 +9.0 26 +30 +41 жарко 1011.0 934.7
Ю 3 5000 м мгла 2/2 960 м +32.0 +7.0 21 +30 +44 жарко 1011.0 934.7
Ю 3 6000 м 2/2 960 м +33.0 +8.0 21 +31 +45 жарко 1010.0 933.3
Ю 4 7000 м ясно +34.0 +8.0 20 +32 +32 жарко 1009.0 933.3
Ю 4 6000 м ясно +34.0 +8.0 20 +32 +32 жарко 1009.0 932.0
Ю 4 6000 м ясно +33.0 +8.0 21 +31 +31 жарко 1008.0 932.0
ЮЗ 5 5000 м мгла ясно +32.0 +10.0 26 +32 +32 жарко 1008.0 932.0
Ю 4 6000 м ясно +31.0 +9.0 26 +30 +30 жарко 1008.0 932.0
ЮЗ 3 6000 м ясно +30.0 +10.0 29 +30 +30 жарко 1008.0 932.0
С 7 10 км ясно +29.0 +9.0 29 +29 +29 жарко 1003.0 926.7
Местоположение метеостанции Куляб аэропорт (Таджикистан): широта 37.98 долгота 69.80 высота над уровнем моря 675 м.
В архиве по умолчанию представлена погода в Куляб аэропорту за последнюю неделю. Архивные данные за месяц целиком и за предыдущие месяцы, начиная с января 2011 года, Вы можете получить, выбрав интересующий диапазон дат из раскрывающегося списка и нажав кнопку "Найти!".
*Определитесь, кто Вы:
Внимание! Время в таблицах - всемирное. Для получения местного времени необходимо прибавить поправку, которая равна 5 ч.
Смотрите также архив погоды в соседних городах и на ближайших метеорологических станциях:
Партнеры нашего сайта:      
Пояснения к столбцам:
  • Ветер - указаны скорость ветра в м/с - средняя за 10 мин, порывы в срок и между сроками (в фигурных скобках) и направление, откуда дует ветер: С - северный,
  • СВ - северо-восточный, В - восточный, ЮВ - юго-восточный, Ю - южный, ЮЗ - юго-западный, З - западный, СЗ - северо-западный.
  • Видимость - горизонтальная дальность видимости в метрах или километрах. При видимости от 1 до 10 км при отсутствии осадков обычно наблюдается дымка, при ухудшении видимости до 1 км и менее - туман. В сухую погоду видимость может ухудшаться дымом, пылью или мглою.
  • Явления - указаны атмосферные явления, наблюдавшиеся в срок или в последний час перед сроком; фигурными скобками обозначены явления, наблюдавшиеся между сроками (за 1-3 часа до срока); квадратными скобками обозначены град или гололедные отложения с указанием их диаметра в мм.
  • Облачность - указаны через наклонную черту общая и нижняя облачность в баллах и высота нижней границы облаков в метрах; квадратными скобками обозначены формы облаков: Ci - перистые, Cs - перисто-слоистые, Cc - перисто-кучевые, Ac - высококучевые, As - высокослоистые, Sc - слоисто-кучевые, Ns - слоисто-дождевые, Cu - кучевые, Cb - кучево-дождевые. Подробнее классификацию облаков см. в Атласе облаков (PDF).
  • T - Температура воздуха - температура, измеренная на высоте 2 м над землей.
  • Td - Температура точки росы - температура, при понижении до которой содержащийся в воздухе водяной пар достигнет насыщения.
  • f - Относительная влажность воздуха - влажноcть воздуха, измеренная на высоте 2 м над землей.
  • Te - Эффективная температура - температура, которую ощущает одетый по сезону человек в тени. Характеристика душности погоды. При расчете учитывается влияние влажности воздуха и скорости ветра на теплоощущения человека.
  • Tes - Эффективная температура на солнце - температура, которую ощущает человек, с поправкой на солнечный нагрев. Характеристика знойности погоды. Зависит от высоты солнца над горизонтом, облачности и скорости ветра. Ночью, в пасмурную погоду, а также при ветре 12 м/с и более поправка равна нулю.
  • P - Атмосферное давление - приведенное к уровню моря атмосферное давление.
  • Po - Атмосферное давление - измеренное на уровне метеостанции атмосферное давление.
  • Tmin - Минимальная температура - минимум температуры воздуха на высоте 2 м над землей.
  • Tmax - Максимальная температура - максимум температуры воздуха на высоте 2 м над землей.
  • R - Количество осадков - Количество выпавших осадков за период времени, мм. При наведении курсора мыши на число - период времени, за который выпало указанное количество осадков.
  • R24 - Количество осадков - Количество выпавших осадков за 24 часа, мм.
  • S - Снежный покров - Высота снежного покрова, см. При наведении курсора мыши на число - состояние снежного покрова и степень покрытия местности в баллах.